NameSizeLast modified
Parent directory/⇩ 4.66 GB(.zip of contents)
[RAHC001] DJKurara - MAXIMUM SPEEDCORE MIXS VOL.1/⇩ 118 MB2017-09-08 05:54:17
[RAHC002] DJKurara - MAXIMUM SPEEDCORE MIXS VOL.2/⇩ 114 MB2017-09-08 05:54:17
[RAHC003] DJCulala - MAXIMUM SPEEDCORE MIXS VOL.3/⇩ 129 MB2017-09-08 05:54:17
[RAHC004] DJKurara - MAXIMUM SPEEDCORE MIXS VOL.4/⇩ 132 MB2017-09-08 05:54:17
[RAHC005] V.A. - R.A.H 1ST SHOT/⇩ 137 MB2017-03-29 09:05:54
[RAHC006] DJKurara - MAXIMUM SPEEDCORE MIXS VOL.5/⇩ 108 MB2017-09-08 05:54:17
[RAHC007] V.A. - Hardcore Bombardements/⇩ 145 MB2017-09-08 05:54:17
[RAHC008] DJKurara - BLOODY BPM/⇩ 109 MB2017-09-08 05:54:17
[RAHC009] DJKurara - Destroi Doom Chaos/⇩ 78 MB2017-09-08 05:54:17
[RAHC010] V.A. - Madness Cluv Sounds/⇩ 101 MB2017-09-08 05:54:17
[RAHC011] DJKurara - Breaking the Auditory/⇩ 57 MB2017-09-08 05:54:17
[RAHC012] UNO - about noisy/⇩ 61 MB2017-09-08 05:54:17
[RAHC013] V.A. - Today is the day of what/⇩ 106 MB2017-03-29 09:07:03
[RAHC014] DJKurara - CUT AND PASTE/⇩ 62 MB2017-09-08 05:54:17
[RAHC015] DJKurara - EXTREME SPEED KINGDOM/⇩ 208 MB2017-09-08 05:54:17
[RAHC016] V.A. - 通勤快速/⇩ 70 MB2017-09-08 05:54:17
[RAHC017] DJKurara - HARDCORELOIDS/⇩ 158 MB2017-03-29 09:07:47
[RAHC018] DJKurara - Exulted Halloween EP/⇩ 23 MB2017-09-08 05:54:17
[RAHC019] UNO - Thermography/⇩ 57 MB2017-09-08 05:54:17
[RAHC020] V.A. - Tribute to the bastards of X'MAS/⇩ 334 MB2017-09-08 05:54:17
[RAHC021] V.A. - JAPAN NATIONAL DAY COMPILATION/⇩ 187 MB2017-09-08 05:54:17
[RAHC022] DJKurara & J.J.QURELESS Sprit/⇩ 49 MB2017-09-08 05:54:17
[RAHC023] PUDGE! - I'll Blow Your Eye With Fork!/⇩ 33 MB2017-09-08 05:54:17
[RAHC024] MyXoMoPBL - Remaining Sense of Pain/⇩ 31 MB2017-09-08 05:54:17
[RAHC025] TohLPeaks - Society Pays No Benefit To Me Because I'm A Motherfucking Sociopath EP/⇩ 42 MB2017-09-08 05:54:17
[RAHC026] PUDGE - 0n3 S3para73 R3al17y/⇩ 39 MB2017-03-29 09:08:58
[RAHC027] V.A. - Distorted Eliminator/⇩ 236 MB2017-09-08 05:54:17
[RAHC028] Annoying Ringtone - Unhappy Customer/⇩ 30 MB2017-09-08 05:54:17
[RAHC029] V.A. - Retour des Hardcore Bombardements/⇩ 151 MB2017-05-03 21:51:19
[RAHC030] V.A. - Drag Out Internal/⇩ 165 MB2017-09-08 05:54:17
[RAHC031] mizu & bakudan - Hardcore Synthesis/⇩ 67 MB2017-03-29 09:10:00
[RAHC032] UNO - wa ka ga ki no e/⇩ 41 MB2017-09-08 05:54:17
[RAHC033] V.A. - Energetic Hardcore Monsters/⇩ 388 MB2017-09-08 05:54:17
[RAHC034] Purgatek - Reign/⇩ 36 MB2017-09-08 05:54:17
[RAHC035] Tomegatherion - Sweet and Sour/⇩ 60 MB2017-09-08 05:54:17
[RAHC036] V.A. - SNS Friends/⇩ 108 MB2017-03-29 09:11:00
[RAHC037] V.A. - Energytic Hardcore Monsters Vol.2/⇩ 295 MB2017-09-08 05:54:17
[RAHC038] V.A. - GOOD-BYE MY ROOTS/⇩ 120 MB2017-09-08 05:54:17
[RAHC039] V.A. - Sweetcore Absolute/⇩ 232 MB2017-09-08 05:54:17
[RAHC040] V.A. - Advent Of Devils/⇩ 152 MB2017-09-08 05:54:17
notes.txt⇩ 0 KB2017-03-29 09:04:54